{"data":{"norad_id":62480,"epoch":"2026-05-25T03:49:55.094016Z","epoch_age_seconds":58465,"freshness":"FRESH","line1":"1 62480U 24254U   26145.15966544  .00012280  00000+0  45481-3 0  9992","line2":"2 62480  42.9984 304.0290 0000642 261.2940  98.7839 15.27595432 79353","mean_motion":15.27595432,"eccentricity":6.42e-5,"inclination_deg":42.9984,"raan_deg":304.029,"arg_perigee_deg":261.294,"mean_anomaly_deg":98.7839,"bstar":0.00045481,"rev_number":7935,"period_min":94.265796416705,"perigee_km":482.56240228825,"apogee_km":483.4433726498,"semimajor_km":6861.139887469,"source":"CELESTRAK","updated_at":"2026-05-25T13:38:19.695269Z"}}